Regional Weather Roundup
Issued by NWS

Home | Current Version | Previous Version | Graphics & Text | Print | Product List | Glossary Off
Versions: 1 2 3 4 5 6 7 8 9 10 11 12 13 14 15 16 17 18 19 20 21 22 23 24 25 26 27 28 29 30 31 32 33 34 35 36 37 38 39 40 41 42 43 44 45 46 47 48 49 50

207
ASUS43 KDMX 172206
RWRIA

WEATHER ROUNDUP FOR IOWA
NATIONAL WEATHER SERVICE DES MOINES IA
400 PM CST SAT FEB 17 2018

NOTE: "FAIR" INDICATES FEW OR NO CLOUDS BELOW 12,000 FEET WITH NO
SIGNIFICANT WEATHER AND/OR OBSTRUCTIONS TO VISIBILITY.

* - THESE STATIONS ARE NOT NWS STATIONS...THUS NOT UNDER NWS
QUALITY CONTROL.  THEY ALSO DO NOT REPORT WEATHER SUCH
AS PRECIPITATION OR FOG.

IAZ001>003-012>014-020>022-031>034-043>046-172300-
   NORTHWEST IOWA

CITY           SKY/WX    TMP DP  RH WIND       PRES   REMARKS
CARROLL *      SUNNY     37  28  70 NW15G22   30.05R WCI  28
CHEROKEE *     SUNNY     33  28  81 W14       30.05R WCI  23
DENISON *      MOSUNNY   37  27  65 NW15G23   30.08R WCI  28
LE MARS *      PTSUNNY   34  27  75 NW8       30.07R WCI  27
ORANGE CITY *  SUNNY     30  28  93 NW13      30.04R WCI  20
SHELDON *      SUNNY     32  27  80 NW15      30.01R WCI  22
SIOUX CITY     SUNNY     35  27  72 NW10      30.08R WCI  27
SPENCER        SUNNY     34  26  72 W16       30.01R WCI  24
STORM LAKE *   SUNNY     32  28  86 W18       30.03R WCI  20
$$

IAZ055>058-069>071-079>083-090>094-172300-
   SOUTHWEST IOWA

CITY           SKY/WX    TMP DP  RH WIND       PRES   REMARKS
ATLANTIC *     PTSUNNY   45  28  53 NW17G24   30.07R
AUDUBON *      MOSUNNY   39  28  65 NW9G18    30.08R WCI  33
CLARINDA *     SUNNY     48  27  43 NW15      30.11R
COUNCIL BLFS * SUNNY     45  27  49 NW16G24   30.08R
CRESTON *      SUNNY     45  25  45 W22       30.07R
HARLAN  *      MOSUNNY   41  28  60 NW18G28   30.11R
LAMONI         SUNNY     46  23  40 NW22      30.06R
RED OAK *      SUNNY     46  25  42 NW12      30.09R
SHENANDOAH *   SUNNY     48  25  40 NW14G21   30.10R
$$

IAZ047>049-059>061-072>074-084-172300-
   CENTRAL IOWA

CITY           SKY/WX    TMP DP  RH WIND       PRES   REMARKS
AMES           PTSUNNY   35  28  75 NW15      30.04R WCI  25
ANKENY *       MOSUNNY   39  30  70 NW14      30.06R WCI  31
BOONE *          N/A     36  28  75 W17G25    30.02R WCI  25
CHARITON *     SUNNY     43  27  52 NW16G22   30.04R
DES MOINES     MOSUNNY   41  30  65 NW14      30.04R
GRINNELL*      CLOUDY    32  28  82 W15G21    30.04R WCI  22
KNOXVILLE *    SUNNY     39  27  60 NW13      30.03R WCI  32
MARSHALLTOWN   MOSUNNY   33  28  81 W12       30.02R WCI  24
NEWTON *       PTSUNNY   36  28  75 W12       30.04R WCI  27
PELLA *        SUNNY     38  29  68 NW14G21   30.05R WCI  30
PERRY *        PTSUNNY   37  28  72 NW15G25   30.06R WCI  28
$$

IAZ004>006-015-016-023>025-035-036-172300-
   NORTH CENTRAL IOWA

CITY           SKY/WX    TMP DP  RH WIND       PRES   REMARKS
ALGONA *       SUNNY     32 N/A N/A NW12      30.01R WCI  23
CLARION *      SUNNY     32  32 100 NW17      30.01R WCI  21
ESTHERVILLE    SUNNY     31  26  82 W17       29.98R WCI  19
FORT DODGE *   SUNNY     33  28  81 W12G18    30.03R WCI  24
MASON CITY     PTSUNNY   32  25  75 W16       29.99R WCI  21
WEBSTER CITY * MOSUNNY   32  27  80 NW15      30.01R WCI  22
IOWA FALLS *   FAIR      32  27  83 W13       30.02R WCI  22
$$

IAZ007>011-017>019-026>030-037>042-050>054-066-172300-
   NORTHEAST IOWA

CITY           SKY/WX    TMP DP  RH WIND       PRES   REMARKS
CEDAR RAPIDS   CLOUDY    31  25  78 NW21      30.01R WCI  18
CHARLES CITY * PTSUNNY   30  30 100 W16       29.98R WCI  19
CLINTON *      CLOUDY    30  26  85 W15       29.98R WCI  19
DECORAH *      CLOUDY    28  25  86 VRB7G13   29.93R WCI  21
DUBUQUE        CLOUDY    27  21  78 W14       29.96R WCI  16
MONTICELLO *   CLOUDY    28  25  86 W12       29.99R WCI  18
OELWEIN *      CLOUDY    28  28 100 W15       29.97R WCI  17
WATERLOO       FAIR      31  25  78 NW8       29.99R WCI  23
$$

IAZ064-065-067-068-078-172300-
   EAST CENTRAL IOWA

CITY           SKY/WX    TMP DP  RH WIND       PRES   REMARKS
DAVENPORT      CLOUDY    32  24  72 W20       30.01R WCI  20
IOWA CITY      CLOUDY    34  23  64 NW15      30.04R WCI  24
MT. PLEASANT * SUNNY     36  28  75 W16       30.03R WCI  26
MUSCATINE *    CLOUDY    32  25  74 NW18G26   30.04R WCI  20
QUAD CITIES    CLOUDY    32  26  78 W17       29.99R WCI  21
$$

IAZ062-063-075>077-085>089-095>099-172300-
   SOUTHEAST IOWA

CITY           SKY/WX    TMP DP  RH WIND       PRES   REMARKS
BURLINGTON     MOSUNNY   37  28  70 NW14G20   30.02R WCI  28
FAIRFIELD *    SUNNY     36  27  69 W14G22    30.03R WCI  27
FORT MADISON * SUNNY     39  32  75 NW9G17    30.03R WCI  33
KEOKUK *       MOSUNNY   43  28  56 W18G25    30.01R
OSKALOOSA *    FAIR      34  28  80 NW12      30.04R WCI  25
OTTUMWA        SUNNY     39  26  59 NW17      30.03R WCI  30
WASHINGTON *   PTSUNNY   34  28  80 NW18      30.04R WCI  23
$$

ABBREVIATIONS USED IN REMARKS
   TC - TEMPERATURES IN CELSIUS
  WCI - WIND CHILL INDEX
   HX - HEAT INDEX
  VSB - VISIBILITY
$$





USA.gov is the U.S. government's official web portal to all federal, state and local government web resources and services.